| time (UTC) | temp F | wind direction | speed knots | gust knots | rain 1hr in | rain 24hr in | rain mn in | humidity % | barometer mb |
| 20260504130550 | 56 | 212 | 4.3 | 13.0 | 0.00 | 0.00 | 0.00 | 48 | 1011.0 |
| 20260504120217 | 52 | 203 | 1.7 | 6.1 | 0.00 | 0.00 | 0.00 | 55 | 1012.7 |
| 20260504110531 | 49 | 234 | 2.6 | 7.0 | 0.00 | 0.00 | 0.00 | 60 | 1011.1 |
| 20260504100528 | 41 | 114 | 0.0 | 1.7 | 0.00 | 0.00 | 0.00 | 77 | 1011.0 |
| 20260504100217 | 41 | 91 | 0.9 | 1.7 | 0.00 | 0.00 | 0.00 | 76 | 1012.7 |
| 20260504080903 | 38 | 44 | 1.7 | 3.5 | 0.00 | 0.00 | 0.00 | 80 | 1012.0 |
| 20260504080504 | 39 | 61 | 1.7 | 2.6 | 0.00 | 0.00 | 0.00 | 78 | 1010.6 |
| 20260504060217 | 44 | 69 | 0.9 | 1.7 | 0.00 | 0.00 | 0.00 | 66 | 1012.0 |
| 20260504050426 | 44 | 74 | 0.0 | 0.0 | 0.00 | 0.00 | 0.00 | 64 | 1010.3 |
| 20260504050003 | 43 | 109 | 0.0 | 1.7 | 0.00 | 0.00 | 0.00 | 64 | 1012.0 |
| 20260504045618 | 44 | 99 | 0.0 | 1.7 | 0.00 | 0.00 | 0.00 | 63 | 1012.0 |
| 20260504044921 | 44 | 69 | 0.9 | 0.9 | 0.00 | 0.00 | 0.00 | 64 | 1010.5 |
| 20260504044503 | 44 | 48 | 0.0 | 0.9 | 0.00 | 0.00 | 0.00 | 64 | 1012.0 |
| 20260504043603 | 44 | 22 | 0.0 | 0.9 | 0.00 | 0.00 | 0.00 | 62 | 1012.0 |
| 20260504043419 | 44 | 23 | 0.0 | 0.0 | 0.00 | 0.00 | 0.00 | 63 | 1010.5 |
| 20260504042703 | 44 | 39 | 0.0 | 1.7 | 0.00 | 0.00 | 0.00 | 64 | 1012.0 |
| 20260504041915 | 44 | 56 | 1.7 | 1.7 | 0.00 | 0.00 | 0.00 | 62 | 1010.6 |
| 20260504041803 | 44 | 20 | 0.9 | 1.7 | 0.00 | 0.00 | 0.00 | 62 | 1012.0 |
| 20260504040904 | 44 | 178 | 0.0 | 0.9 | 0.00 | 0.00 | 0.00 | 61 | 1012.0 |
| 20260504040412 | 44 | 23 | 0.0 | 0.0 | 0.00 | 0.00 | 0.00 | 62 | 1010.4 |
| 20260504040008 | 44 | 0 | 0.0 | 0.0 | 0.00 | 0.00 | 0.00 | 62 | 1011.7 |
| 20260504035403 | 44 | 0 | 0.0 | 0.0 | 0.00 | 0.00 | 0.00 | 61 | 1011.7 |
| 20260504034907 | 44 | 23 | 0.0 | 0.0 | 0.00 | 0.00 | 0.00 | 60 | 1010.2 |
| 20260504034717 | 44 | 23 | 0.0 | 0.9 | 0.00 | 0.00 | 0.00 | 59 | 1011.7 |
| 20260504033819 | 45 | 189 | 0.0 | 0.9 | 0.00 | 0.00 | 0.00 | 58 | 1011.7 |
| 20260504033406 | 45 | 194 | 0.0 | 0.0 | 0.00 | 0.00 | 0.00 | 58 | 1010.2 |
| 20260504032703 | 45 | 187 | 0.0 | 0.9 | 0.00 | 0.00 | 0.00 | 58 | 1011.7 |
| 20260504031901 | 46 | 160 | 0.0 | 0.0 | 0.00 | 0.00 | 0.00 | 56 | 1010.2 |
| 20260504031804 | 46 | 167 | 0.0 | 0.9 | 0.00 | 0.00 | 0.00 | 56 | 1011.7 |
| 20260504030903 | 46 | 165 | 0.0 | 0.9 | 0.00 | 0.00 | 0.00 | 55 | 1011.7 |
| 20260504030358 | 46 | 166 | 0.0 | 0.0 | 0.00 | 0.00 | 0.00 | 56 | 1010.2 |
| 20260504030003 | 46 | 161 | 0.0 | 0.9 | 0.00 | 0.00 | 0.00 | 54 | 1011.7 |
| 20260504025403 | 46 | 184 | 0.0 | 0.9 | 0.00 | 0.00 | 0.00 | 56 | 1011.7 |
| 20260504024854 | 46 | 180 | 0.0 | 0.9 | 0.00 | 0.00 | 0.00 | 56 | 1010.2 |
| 20260504024503 | 46 | 0 | 0.0 | 0.0 | 0.00 | 0.00 | 0.00 | 55 | 1011.7 |
| 20260504023603 | 46 | 186 | 0.9 | 1.7 | 0.00 | 0.00 | 0.00 | 55 | 1011.7 |
| 20260504023350 | 46 | 180 | 0.0 | 0.9 | 0.00 | 0.00 | 0.00 | 55 | 1010.3 |
| 20260504022703 | 47 | 182 | 0.0 | 1.7 | 0.00 | 0.00 | 0.00 | 53 | 1011.7 |
| 20260504021850 | 48 | 195 | 0.0 | 0.0 | 0.00 | 0.00 | 0.00 | 51 | 1010.1 |
| 20260504021803 | 48 | 182 | 0.0 | 0.9 | 0.00 | 0.00 | 0.00 | 51 | 1011.7 |
| 20260504020903 | 49 | 191 | 0.9 | 2.6 | 0.00 | 0.00 | 0.00 | 50 | 1011.7 |
| 20260504020347 | 49 | 180 | 0.9 | 1.7 | 0.00 | 0.00 | 0.00 | 49 | 1010.0 |
| 20260504020003 | 49 | 197 | 0.9 | 3.5 | 0.00 | 0.00 | 0.00 | 50 | 1011.3 |
| 20260504015403 | 50 | 201 | 1.7 | 5.2 | 0.00 | 0.00 | 0.00 | 49 | 1011.3 |
| 20260504014847 | 50 | 246 | 0.9 | 5.2 | 0.00 | 0.00 | 0.00 | 48 | 1010.0 |
| 20260504014503 | 50 | 216 | 1.7 | 4.3 | 0.00 | 0.00 | 0.00 | 48 | 1011.7 |
| 20260504013603 | 50 | 208 | 1.7 | 3.5 | 0.00 | 0.00 | 0.00 | 48 | 1011.3 |
| 20260504013344 | 49 | 245 | 2.6 | 2.6 | 0.00 | 0.00 | 0.00 | 48 | 1009.9 |
| 20260504012703 | 50 | 207 | 0.9 | 3.5 | 0.00 | 0.00 | 0.00 | 47 | 1011.3 |
| 20260504012017 | 50 | 211 | 1.7 | 4.3 | 0.00 | 0.00 | 0.00 | 46 | 1011.3 |
| 20260504011842 | 50 | 248 | 2.6 | 3.5 | 0.00 | 0.00 | 0.00 | 46 | 1009.8 |
| 20260504010903 | 50 | 218 | 0.9 | 4.3 | 0.00 | 0.00 | 0.00 | 45 | 1011.0 |
| 20260504010342 | 50 | 246 | 0.0 | 0.9 | 0.00 | 0.00 | 0.00 | 45 | 1009.5 |
| 20260504010003 | 50 | 207 | 0.9 | 5.2 | 0.00 | 0.00 | 0.00 | 45 | 1011.0 |
| 20260504005403 | 50 | 217 | 0.9 | 2.6 | 0.00 | 0.00 | 0.00 | 45 | 1010.6 |
| 20260504004839 | 51 | 234 | 0.0 | 1.7 | 0.00 | 0.00 | 0.00 | 44 | 1009.3 |
| 20260504004503 | 50 | 221 | 0.9 | 2.6 | 0.00 | 0.00 | 0.00 | 43 | 1010.6 |
| 20260504003603 | 51 | 217 | 0.9 | 4.3 | 0.00 | 0.00 | 0.00 | 42 | 1010.3 |
| 20260504003336 | 51 | 237 | 1.7 | 2.6 | 0.00 | 0.00 | 0.00 | 41 | 1009.0 |
| 20260504002917 | 51 | 216 | 0.9 | 2.6 | 0.00 | 0.00 | 0.00 | 41 | 1010.6 |
| 20260504001833 | 52 | 206 | 0.9 | 2.6 | 0.00 | 0.00 | 0.00 | 39 | 1008.9 |
| 20260504001803 | 52 | 215 | 0.9 | 3.5 | 0.00 | 0.00 | 0.00 | 38 | 1010.3 |
| 20260504000903 | 52 | 215 | 0.9 | 3.5 | 0.00 | 0.00 | 0.00 | 39 | 1010.3 |
| 20260504000329 | 52 | 255 | 0.0 | 2.6 | 0.00 | 0.00 | 0.00 | 40 | 1008.9 |
| 20260504000003 | 52 | 215 | 0.9 | 3.5 | 0.00 | 0.00 | 0.00 | 39 | 1010.3 |
| 20260503235403 | 53 | 223 | 0.9 | 3.5 | 0.00 | 0.00 | 0.00 | 37 | 1010.3 |
| 20260503234826 | 53 | 220 | 0.0 | 1.7 | 0.00 | 0.00 | 0.00 | 36 | 1008.6 |
| 20260503234503 | 53 | 232 | 0.9 | 3.5 | 0.00 | 0.00 | 0.00 | 37 | 1010.0 |
| 20260503233603 | 53 | 224 | 1.7 | 5.2 | 0.00 | 0.00 | 0.00 | 36 | 1010.0 |
| 20260503233323 | 53 | 209 | 2.6 | 4.3 | 0.00 | 0.00 | 0.00 | 35 | 1008.6 |
| 20260503232917 | 53 | 219 | 0.9 | 3.5 | 0.00 | 0.00 | 0.00 | 36 | 1010.0 |
| 20260503231821 | 54 | 177 | 2.6 | 2.6 | 0.00 | 0.00 | 0.00 | 34 | 1008.4 |
| 20260503231803 | 53 | 243 | 1.7 | 7.8 | 0.00 | 0.00 | 0.00 | 34 | 1009.3 |
| 20260503230903 | 54 | 242 | 1.7 | 7.0 | 0.00 | 0.00 | 0.00 | 35 | 1009.6 |
| 20260503230316 | 54 | 270 | 1.7 | 2.6 | 0.00 | 0.00 | 0.00 | 34 | 1008.0 |
| 20260503230004 | 54 | 279 | 1.7 | 6.1 | 0.00 | 0.00 | 0.00 | 34 | 1009.6 |
| 20260503225403 | 54 | 270 | 1.7 | 7.0 | 0.00 | 0.00 | 0.00 | 33 | 1009.6 |
| 20260503224812 | 54 | 215 | 2.6 | 2.6 | 0.00 | 0.00 | 0.00 | 36 | 1008.0 |
| 20260503224503 | 54 | 286 | 1.7 | 5.2 | 0.00 | 0.00 | 0.00 | 36 | 1009.6 |
| 20260503223603 | 55 | 233 | 1.7 | 7.8 | 0.00 | 0.00 | 0.00 | 35 | 1009.6 |
| 20260503223311 | 55 | 350 | 1.7 | 2.6 | 0.00 | 0.00 | 0.00 | 34 | 1007.9 |
| 20260503222703 | 55 | 234 | 3.5 | 11.3 | 0.00 | 0.00 | 0.00 | 33 | 1009.6 |
| 20260503221808 | 55 | 270 | 0.9 | 10.4 | 0.00 | 0.00 | 0.00 | 34 | 1007.9 |
| 20260503221803 | 55 | 245 | 3.5 | 10.4 | 0.00 | 0.00 | 0.00 | 34 | 1009.6 |
| 20260503220903 | 55 | 257 | 2.6 | 10.4 | 0.00 | 0.00 | 0.00 | 34 | 1009.6 |
| 20260503220305 | 55 | 235 | 2.6 | 10.4 | 0.00 | 0.00 | 0.00 | 33 | 1008.1 |
| 20260503220003 | 55 | 245 | 2.6 | 8.7 | 0.00 | 0.00 | 0.00 | 34 | 1009.6 |
| 20260503215403 | 55 | 250 | 3.5 | 11.3 | 0.00 | 0.00 | 0.00 | 33 | 1009.6 |
| 20260503214803 | 56 | 301 | 4.3 | 11.3 | 0.00 | 0.00 | 0.00 | 33 | 1007.9 |
| 20260503214503 | 55 | 251 | 3.5 | 13.9 | 0.00 | 0.00 | 0.00 | 33 | 1009.6 |
| 20260503213816 | 55 | 280 | 3.5 | 13.9 | 0.00 | 0.00 | 0.00 | 34 | 1009.3 |
| 20260503213300 | 55 | 322 | 5.2 | 7.0 | 0.00 | 0.00 | 0.00 | 34 | 1008.0 |
| 20260503212703 | 55 | 280 | 3.5 | 11.3 | 0.00 | 0.00 | 0.00 | 34 | 1009.3 |
| 20260503211803 | 55 | 262 | 3.5 | 13.9 | 0.00 | 0.00 | 0.00 | 35 | 1009.6 |
| 20260503211758 | 55 | 310 | 6.1 | 7.0 | 0.00 | 0.00 | 0.00 | 34 | 1007.8 |
| 20260503210903 | 55 | 246 | 2.6 | 11.3 | 0.00 | 0.00 | 0.00 | 34 | 1009.6 |
| 20260503210259 | 56 | 18 | 3.5 | 6.1 | 0.00 | 0.00 | 0.00 | 35 | 1007.8 |
| 20260503210003 | 54 | 281 | 2.6 | 7.8 | 0.00 | 0.00 | 0.00 | 36 | 1009.6 |
| 20260503205403 | 53 | 317 | 2.6 | 7.0 | 0.00 | 0.00 | 0.00 | 36 | 1009.6 |
| 20260503204759 | 56 | 152 | 1.7 | 2.6 | 0.00 | 0.00 | 0.00 | 36 | 1007.8 |
| 20260503204503 | 54 | 272 | 3.5 | 8.7 | 0.00 | 0.00 | 0.00 | 37 | 1009.6 |
| 20260503203603 | 54 | 267 | 3.5 | 14.8 | 0.00 | 0.00 | 0.00 | 38 | 1009.6 |
| 20260503203257 | 55 | 247 | 5.2 | 7.0 | 0.00 | 0.00 | 0.00 | 38 | 1007.7 |
| 20260503202703 | 54 | 263 | 3.5 | 14.8 | 0.00 | 0.00 | 0.00 | 38 | 1009.6 |
| 20260503201803 | 54 | 261 | 2.6 | 11.3 | 0.00 | 0.00 | 0.00 | 38 | 1009.3 |
| 20260503201755 | 55 | 67 | 5.2 | 11.3 | 0.00 | 0.00 | 0.00 | 40 | 1008.0 |
| 20260503200904 | 54 | 276 | 3.5 | 13.0 | 0.00 | 0.00 | 0.00 | 39 | 1009.6 |
| 20260503200251 | 53 | 243 | 3.5 | 8.7 | 0.00 | 0.00 | 0.00 | 40 | 1008.1 |
| 20260503200003 | 51 | 330 | 3.5 | 13.0 | 0.00 | 0.00 | 0.00 | 40 | 1009.6 |
| 20260503195403 | 51 | 243 | 3.5 | 13.0 | 0.00 | 0.00 | 0.00 | 42 | 1010.0 |
| 20260503194749 | 51 | 248 | 2.6 | 11.3 | 0.00 | 0.00 | 0.00 | 42 | 1008.2 |
| 20260503194503 | 50 | 244 | 4.3 | 14.8 | 0.00 | 0.00 | 0.00 | 41 | 1009.6 |
| 20260503193603 | 51 | 288 | 4.3 | 14.8 | 0.00 | 0.00 | 0.00 | 40 | 1010.0 |
| 20260503193248 | 52 | 231 | 11.3 | 11.3 | 0.00 | 0.00 | 0.00 | 40 | 1008.7 |
| 20260503192703 | 51 | 256 | 5.2 | 13.9 | 0.00 | 0.00 | 0.00 | 39 | 1010.0 |
| 20260503191803 | 50 | 319 | 4.3 | 14.8 | 0.00 | 0.00 | 0.00 | 41 | 1010.0 |
| 20260503191748 | 50 | 0 | 4.3 | 5.2 | 0.00 | 0.00 | 0.00 | 43 | 1008.4 |
| 20260503190903 | 50 | 285 | 4.3 | 11.3 | 0.00 | 0.00 | 0.00 | 42 | 1010.0 |
| 20260503190245 | 50 | 290 | 0.0 | 9.6 | 0.00 | 0.00 | 0.00 | 45 | 1008.6 |
| 20260503190217 | 49 | 272 | 3.5 | 11.3 | 0.00 | 0.00 | 0.00 | 44 | 1010.0 |
| 20260503185403 | 50 | 287 | 5.2 | 16.5 | 0.00 | 0.00 | 0.00 | 42 | 1010.0 |
| 20260503184744 | 50 | 243 | 3.5 | 9.6 | 0.00 | 0.00 | 0.00 | 44 | 1008.5 |
| 20260503184503 | 49 | 281 | 4.3 | 13.9 | 0.00 | 0.00 | 0.00 | 43 | 1010.0 |
| 20260503183603 | 50 | 275 | 4.3 | 9.6 | 0.00 | 0.00 | 0.00 | 44 | 1010.0 |
| 20260503183240 | 51 | 215 | 6.1 | 9.6 | 0.00 | 0.00 | 0.00 | 44 | 1008.6 |
| 20260503182704 | 50 | 255 | 4.3 | 13.0 | 0.00 | 0.00 | 0.00 | 43 | 1010.3 |
| 20260503181803 | 49 | 291 | 2.6 | 7.0 | 0.00 | 0.00 | 0.00 | 45 | 1010.0 |
| 20260503181738 | 50 | 327 | 1.7 | 3.5 | 0.00 | 0.00 | 0.00 | 43 | 1008.8 |
| 20260503180903 | 50 | 297 | 3.5 | 11.3 | 0.00 | 0.00 | 0.00 | 44 | 1010.0 |
| 20260503180236 | 50 | 108 | 2.6 | 7.0 | 0.00 | 0.00 | 0.00 | 44 | 1008.7 |
| 20260503180217 | 49 | 271 | 4.3 | 13.0 | 0.00 | 0.00 | 0.00 | 44 | 1010.0 |
| 20260503175403 | 49 | 287 | 3.5 | 11.3 | 0.00 | 0.00 | 0.00 | 43 | 1010.0 |
| 20260503174731 | 49 | 294 | 1.7 | 8.7 | 0.00 | 0.00 | 0.00 | 43 | 1008.6 |
| 20260503174503 | 49 | 266 | 3.5 | 15.6 | 0.00 | 0.00 | 0.00 | 44 | 1010.0 |
| 20260503173817 | 50 | 249 | 3.5 | 15.6 | 0.00 | 0.00 | 0.00 | 43 | 1010.0 |
| 20260503173226 | 50 | 294 | 1.7 | 9.6 | 0.00 | 0.00 | 0.00 | 42 | 1008.5 |
| 20260503172703 | 51 | 269 | 2.6 | 10.4 | 0.00 | 0.00 | 0.00 | 40 | 1010.0 |
| 20260503171803 | 50 | 266 | 3.5 | 13.0 | 0.00 | 0.00 | 0.00 | 42 | 1010.0 |
| 20260503171722 | 50 | 289 | 4.3 | 9.6 | 0.00 | 0.00 | 0.00 | 40 | 1008.6 |
| 20260503170903 | 50 | 292 | 3.5 | 9.6 | 0.00 | 0.00 | 0.00 | 42 | 1010.0 |
| 20260503170220 | 50 | 332 | 1.7 | 7.8 | 0.00 | 0.00 | 0.00 | 44 | 1009.0 |
| 20260503160210 | 47 | 52 | 1.7 | 6.1 | 0.00 | 0.00 | 0.00 | 53 | 1009.2 |
| 20260503150903 | 46 | 300 | 2.6 | 7.8 | 0.00 | 0.00 | 0.00 | 55 | 1011.0 |
| 20260503150200 | 47 | 358 | 2.6 | 3.5 | 0.00 | 0.00 | 0.00 | 54 | 1009.3 |
| 20260503140147 | 49 | 234 | 3.5 | 3.5 | 0.00 | 0.00 | 0.00 | 57 | 1009.3 |